PRAETORIAN SDA_605

Last updated on Thu Aug 20 2026 00:03:39 GMT+0000 (Coordinated Universal Time)

1 65568U 25203D 26231.18189946 .00000060 00000+0 44224-4 0 9997 2 65568 81.3038 312.5104 0008564 28.0252 332.1364 13.83203541 47400
UTC large
Height (km)
Speed (km/s)
/
Latitude / Longitude
Inclination (degrees)
Orbital Period (minutes)
Azimuth
Elevation
Range (km)
Doppler Factor

Next 0 passes for location: London (51.5072 / 0.1276)

No passes found over London.
PRAETORIAN SDA_605